Regional Weather Roundup
Issued by NWS

Home | Current Version | Previous Version | Graphics & Text | Print | Product List | Glossary On
Versions: 1 2 3 4 5 6 7 8 9 10 11 12 13 14 15 16 17 18 19 20 21 22 23 24 25 26 27 28 29 30 31 32 33 34 35 36 37 38 39 40 41 42 43 44 45 46 47 48 49 50
000
ASUS43 KLOT 301809
RWRIL

ILLINOIS REGIONAL WEATHER ROUNDUP
NATIONAL WEATHER SERVICE CHICAGO/ROMEOVILLE IL
100 PM CDT TUE AUG 30 2016

NOTE: "FAIR" INDICATES FEW OR NO CLOUDS BELOW 12,000 FEET WITH NO
SIGNIFICANT WEATHER AND/OR OBSTRUCTIONS TO VISIBILITY.

* THESE STATIONS ARE NOT UNDER NWS QUALITY CONTROL. THEY ALSO MAY NOT
  REPORT WEATHER SUCH AS PRECIPITATION OR FOG.

ILZ001-002-007-009-015-016-024-301900-
NORTHWEST ILLINOIS

CITY           SKY/WX    TMP DP  RH WIND       PRES   REMARKS
MOLINE         PTSUNNY   81  71  71 SW8       30.13F HX  85
6HR MIN TEMP:  70; 6HR MAX TEMP:  81; 6HR PCP:  0.01;

STERLING*      CLOUDY    80  72  76 W5        30.13F HX  84
SAVANNA*       MOSUNNY   81  72  75 CALM      30.13F HX  85
$$

ILZ003-004-008-010-011-017-018-301900-
NORTH CENTRAL ILLINOIS

CITY           SKY/WX    TMP DP  RH WIND       PRES   REMARKS
ROCKFORD       CLOUDY    81  71  71 W7        30.13F HX  85
6HR MIN TEMP:  69; 6HR MAX TEMP:  81; 6HR PCP: TRACE;

FREEPORT*      CLOUDY    78  71  81 SW6       30.15F
ROCHELLE*      MOSUNNY   78  71  77 W6        30.14S HX  81
DE KALB*       PTSUNNY   78  69  75 CALM      30.14F HX  80
$$

ILZ005-006-012>014-019>023-301900-
NORTHEAST ILLINOIS

CITY           SKY/WX    TMP DP  RH WIND       PRES   REMARKS
CHICAGO-OHARE  PTSUNNY   81  72  74 VRB3      30.10F HX  85
6HR MIN TEMP:  71; 6HR MAX TEMP:  81; 6HR PCP:  0.05;

CHICAGO-MIDWAY PTSUNNY   81  73  76 CALM      30.10F HX  86
6HR MIN TEMP:  74; 6HR MAX TEMP:  82; 6HR PCP:  0.17;

AURORA         CLOUDY    80  70  71 NW6       30.13F HX  83
6HR MIN TEMP:  70; 6HR MAX TEMP:  80; 6HR PCP:  0.05;

LANSING*       CLOUDY    81  73  76 CALM      30.11F HX  85
JOLIET*        SUNNY     81  70  69 NW3       30.12F HX  85
WAUKEGAN       PTSUNNY   82  72  71 SE10      30.09F HX  87
6HR MIN TEMP:  72; 6HR MAX TEMP:  83;

DUPAGE AIRPORT PTSUNNY   80  69  69 NW3       30.11F HX  83
6HR MIN TEMP:  70; 6HR MAX TEMP:  80; 6HR PCP:  0.07;

KANKAKEE*      CLOUDY    78  72  80 CALM      30.13R HX  81
WHEELING       MOSUNNY   81  71  71 SW5       30.11F HX  85
6HR MIN TEMP:  72; 6HR MAX TEMP:  82; 6HR PCP: TRACE;

MORRIS*        SUNNY     79  69  72 CALM      30.11S HX  82
ROMEOVILLE*    MOSUNNY   79  72  80 CALM      30.12F HX  81
NORTHERLY ISL    N/A     78  72  81 SE3         N/A  HX  80
$$

LMZ740>746-301900-
SOUTHERN LAKE MICHIGAN

STATION/POSITION SKY/WX   TEMP    WIND        PRES    VSBY  WAVE
                          AIR SEA DIR/SP/G                  HT/PER
                          (F)     (DEG/KT/KT) (MB)    (MI)  (FT/S)
SOUTHERN BUOY              74 76  180/ 10/ 12 1018.9F         2/ 4
WILMETTE HARBOR            74 74  180/  8/ 10   N/A           1/ 3
HARRISON CRIB              76     140/ 12/ 13   N/A
BURNHAM HARBOR             78     150/  3/  8   N/A
CALUMET HARBOR             74      80/  4/  7 1019.5F
BURNS HARBOR               77     190/  8/ 12 1020.7F
MICHIGAN CITY              75     120/ 10/ 12   N/A
MICHIGAN CITY 6N           73 69  220/  2/  4   N/A           1
ST. JOSEPH                 72 72  220/  2/  4 1019.3F         0
$$

ILZ025>027-034>036-040-047-049-050-058-095>099-301900-
WEST-CENTRAL ILLINOIS

CITY           SKY/WX    TMP DP  RH WIND       PRES   REMARKS
QUINCY         LGT RAIN  71  70  96 S3        30.15F
GALESBURG*     PTSUNNY   78  72  80 SW9       30.14F HX  81
MACOMB*        LGT RAIN  75  71  88 SW5       30.17S
JACKSONVILLE*  LGT RAIN  73  72  96 CALM      30.14F
PITTSFIELD*    DRIZZLE   75  73  93 W5        30.18R
$$

ILZ028>032-037-038-041>044-048-051>054-059>061-301900-
CENTRAL ILLINOIS

CITY           SKY/WX    TMP DP  RH WIND       PRES   REMARKS
PONTIAC        CLOUDY    78  74  88 S3        30.13S HX  81
BLOOMINGTON    CLOUDY    75  71  87 SW7       30.13F
DECATUR        CLOUDY    77  72  84 SE3       30.12F
PEORIA         CLOUDY    80  74  81 VRB7      30.12F HX  85
6HR MIN TEMP:  70; 6HR MAX TEMP:  80; 6HR PCP:  0.65;

LACON*         CLOUDY    80  70  72 S6        30.11F HX  83
LINCOLN*       MOSUNNY   76  74  91 S5        30.12F
SPRINGFIELD    CLOUDY    76  72  87 S5        30.13F
6HR MIN TEMP:  71; 6HR MAX TEMP:  79; 6HR PCP:  0.55;

TAYLORVILLE    CLOUDY    76  72  87 CALM      30.13F
6HR MIN TEMP:  68; 6HR MAX TEMP:  83; 6HR PCP:  0.26;

$$

ILZ033-039-045-046-055>057-062-063-301900-
EAST-CENTRAL ILLINOIS

CITY           SKY/WX    TMP DP  RH WIND       PRES   REMARKS
CHAMPAIGN      CLOUDY    81  73  76 SW6       30.12F HX  86
RANTOUL*       LGT RAIN  83  75  76 CALM      30.11F HX  90
MATTOON        PTSUNNY   85  71  63 VRB3      30.11F HX  90
PARIS*         CLOUDY    85  75  71 CALM      30.12F HX  94
$$

ILZ079-100>102-301900-
SOUTHWEST ILLINOIS

CITY           SKY/WX    TMP DP  RH WIND       PRES   REMARKS
ALTON          PTSUNNY   86  72  62 CALM      30.12F HX  92
BELLEVILLE     SUNNY     91  70  50 VRB2      30.09F HX  96
CAHOKIA*       SUNNY     93  68  43 SE3       30.09F HX  97
SPARTA*        SUNNY     86  73  64 CALM      30.11F HX  93
$$

ILZ064>066-069>071-074>076-080>082-084>086-088>090-092>094-301900-
SOUTH-CENTRAL ILLINOIS

CITY           SKY/WX    TMP DP  RH WIND       PRES   REMARKS
CARBONDALE     MOSUNNY   90  68  48 CALM      30.10F HX  94
6HR MIN TEMP:  70; 6HR MAX TEMP:  90;

CAIRO*         MOSUNNY   88  74  64 N7        30.08F HX  96
EFFINGHAM*     MOSUNNY   89  74  61 CALM      30.13F HX  97
MARION         MOSUNNY   90  72  55 N6        30.11F HX  96
MT. VERNON     MOSUNNY   90  70  51 E5        30.11F HX  95
CENTRALIA*     SUNNY     89  76  65 E3        30.10F HX  99
SALEM*         MOSUNNY   89  71  56 CALM      30.11F HX  95
METROPOLIS*    SUNNY     91  73  55 NE6       30.09F HX  99
$$

ILZ067-068-072-073-078-083-087-091-301900-
SOUTHEAST ILLINOIS

CITY           SKY/WX    TMP DP  RH WIND       PRES   REMARKS
LAWRENCEVILLE  SUNNY     87  71  58 CALM      30.11F HX  93
FLORA*         MOSUNNY   89  73  58 CALM      30.11F HX  97
FAIRFIELD*     MOSUNNY   88  73  60 CALM      30.10F HX  95
HARRISBURG*    MOSUNNY   89  73  58 S3        30.10F HX  97
ROBINSON*      SUNNY     84  75  75 CALM      30.12F HX  91
CARMI*         MOSUNNY   89  75  62 CALM      30.09F HX  99
$$

ABBREVIATIONS USED IN REMARKS
   TC - TEMPERATURE IN CELSIUS
  WCI - WIND CHILL INDEX
   HX - HEAT INDEX
  VSB - VISIBILITY
$$





USA.gov is the U.S. government's official web portal to all federal, state and local government web resources and services.